Home   Weather   Fort Walton Beach   Past weeks
Flag for USA

Past Weather in Fort Walton Beach, Florida, USA — Yesterday and Last 2 Weeks

Now
73 °F

Passing clouds.


Feels Like: 71 °F
Forecast: 86 / 77 °F
Wind: No wind

Location: Hurlburt Field

Current Time: Jul 22, 2019 at 5:40:47 am

Latest Report: Jul 22, 2019 at 4:56 am


Visibility: 10 mi

Pressure: 29.97 "Hg

Humidity: 92%

Dew Point: 71 °F

Location of Fort Walton BeachLocation

Past Weather in Fort Walton Beach — Graph

°F

Fort Walton Beach Temperature Yesterday

Maximum temperature yesterday: 87 °F (at 12:59 pm)
Minimum temperature yesterday: 72 °F (at 3:56 am)
Average temperature yesterday: 81 °F

High & Low Weather Summary for the Past Weeks

 TemperatureHumidityPressure
High94 °F (Jul 7, 2:56 pm)100% (Jul 9, 4:07 pm)30.14 "Hg (Jul 9, 4:07 pm)
Low72 °F (Jul 21, 3:56 am)53% (Jul 8, 10:56 am)29.81 "Hg (Jul 12, 3:56 am)
Average82 °F80%29.99 "Hg
* Reported Jul 7 3:56 am — Jul 22 3:56 am, Fort Walton Beach. Weather by CustomWeather, © 2019

Note: Actual official high and low records may vary slightly from our data, if they occured in-between our weather recording intervals... More about our weather records

Advertising

Fort Walton Beach Weather History for the Previous 24 Hours

Scroll right to see more
 ConditionsComfort  
Time TempWeatherWind HumidityBarometerVisibility
3:56 am
Mon, Jul 22
81 °FPassing clouds.No wind76%29.96 "Hg10 mi
2:56 am81 °FPassing clouds.No wind75%29.96 "Hg10 mi
1:56 am81 °FPassing clouds.No wind76%29.96 "Hg10 mi
12:57 am80 °FPassing clouds.6 mph77%29.98 "Hg10 mi
10:56 pm
Sun, Jul 21
81 °FPassing clouds.No wind76%30.01 "Hg10 mi
9:56 pm81 °FPassing clouds.No wind78%30.02 "Hg10 mi
9:03 pm81 °FPassing clouds.No wind78%30.02 "Hg10 mi
7:56 pm82 °FPassing clouds.No wind74%30.01 "Hg10 mi
6:57 pm83 °FPassing clouds.No wind73%30.01 "Hg10 mi
5:56 pm85 °FScattered clouds.7 mph71%30.01 "Hg10 mi
4:56 pm85 °FPassing clouds.7 mph69%29.99 "Hg10 mi
3:56 pm86 °FPassing clouds.6 mph66%30.01 "Hg10 mi
2:56 pm86 °FScattered clouds.No wind66%30.02 "Hg10 mi
1:56 pm85 °FScattered clouds.3 mph68%30.04 "Hg10 mi
12:59 pm87 °FScattered clouds.7 mph63%30.06 "Hg10 mi
11:56 am86 °FPartly sunny.9 mph71%30.07 "Hg10 mi
10:56 am86 °FScattered clouds.6 mph68%30.06 "Hg10 mi
10:00 am86 °FBroken clouds.6 mph65%30.05 "Hg10 mi
8:56 am83 °FPassing clouds.No wind72%30.05 "Hg10 mi
7:56 am79 °FPassing clouds.No wind86%30.05 "Hg10 mi
6:56 am76 °FScattered clouds.No wind89%30.05 "Hg10 mi
5:56 am74 °FScattered clouds.No wind92%30.03 "Hg10 mi
Weather by CustomWeather, © 2019

See weather overview